Terug naar catalogus

DMSP 5D-2 F13

USA 109

ActiefWeerSSO
NORAD 23533·PAYLOAD·🇺🇸 United States

Gelanceerd Mar 24, 1995 vanaf Vandenberg Space Force Base

Loading…

Volgende Passages (komende 24 uur)

TLE

VersSource: Space-Track

Epoch: Sep 14, 2026, 23:31 UTC

1 23533U 95015A   26257.98042307  .00000033  00000-0  38524-4 0  9993
2 23533  98.8039 271.0209 0005658 254.7011 138.4481 14.17043379625911

Volg DMSP 5D-2 F13 in realtime met AllMySat

Download on the App Store